www.pogodaiklimat.ru

Погода и климат >> Архив погоды >> Франция >> Биарриц


ПОГОДА в Биаррице

  • Прогноз погоды в Биаррице
  • Монитор погоды в Биаррице

АРХИВ ПОГОДЫ в Биаррице

Время (UTC), дата Ветер
(напр.,м/с)
 
Видим.   Явления Облачность Т
(С)
Тd
(С)
f
(%)
Тe
(С)
Тes
(С)
Комфортность P
(гПа)
Po
(гПа)
Тmin
(С)
Tmax
(С)
R
(мм)
R24
(мм)
S
(см)
04 12.06 ЮЗ 2 3200 м дождь 10/8 660 м
[]
+11.2 +10.4 95 +10 +10 1014.2 1005.6 2
05 12.06 ЮЗ 2 19 км слаб. дождь 10/9 1050 м
[]
+11.0 +9.1 88 +10 +10 1014.1 1005.5 0.4
06 12.06 ЮЗ 2
{9}
45 км 9/9 1000 м
[]
+11.8 +7.9 77 +11 +11 1013.8 1005.3 +10.9 +15.4 28 0
07 12.06 ЮЗ 2 35 км 10/10 1200 м
[]
+12.8 +7.5 70 +12 +12 1014.4 1005.9
08 12.06 ЮЗ 2 35 км 10/10 1200 м
[]
+13.5 +6.8 64 +13 +13 1014.8 1006.3 0.0
09 12.06 ЮЗ 2
{13}
40 км 10/10 1000 м
[]
+14.1 +7.6 65 +14 +14 1015.1 1006.6 0.0 0
10 12.06 З 3 23 км 9/9 1380 м
[]
+16.0 +7.5 57 +16 +17 1015.3 1006.9
11 12.06 З 5 21 км 10/10 1500 м
[]
+16.8 +8.2 57 +16 +16 1015.6 1007.2
12 12.06 З 4
{13}
22 км 8/8 1500 м
[]
+17.3 +9.7 61 +17 +20 1015.6 1007.2 0
13 12.06 З 4 20 км н/о +17.2 +11.5 69 +17 +17 1015.4 1007.0
14 12.06 З 4 18 км н/о +17.3 +11.3 68 +17 +17 1015.3 1006.9
15 12.06 СЗ 4
{12}
16 км н/о +17.2 +10.8 66 +17 +17 1015.3 1006.9 0
16 12.06 З 3 16 км н/о +16.7 +11.4 71 +16 +16 1015.1 1006.7
17 12.06 З 3 16 км н/о +16.4 +11.1 71 +16 +16 1015.1 1006.7
18 12.06 З 2
{9}
23 км н/о +15.8 +11.2 74 +16 +16 1015.3 1006.9 +11.8 +18.0 0
19 12.06 З 3 25 км 8/8 1410 м
[]
+15.2 +11.2 77 +15 +15 1015.2 1006.8
20 12.06 ЮЗ 1 35 км 10/10 630 м
[]
+14.4 +10.8 79 +16 +16 1015.5 1007.0
21 12.06 ЮЗ 1
{3}
40 км 10/10 1000 м
[]
+14.2 +10.8 80 +15 +15 1015.7 1007.2 0
22 12.06 Ю 1 35 км 10/10 600 м
[]
+14.1 +11.1 82 +15 +15 1015.4 1006.9
23 12.06 ЮЗ 1 30 км 8/3 600 м
[]
+13.4 +10.9 85 +14 +14 1015.0 1006.5
00 13.06 З 3
{4}
28 км н/о +12.4 +11.0 91 +11 +11 1014.4 1005.9 0
01 13.06 Ю 1 27 км 9/9 570 м
[]
+12.0 +10.9 93 +13 +13 1014.1 1005.6
02 13.06 Ю 1 24 км н/о +11.4 +10.1 92 +12 +12 1013.6 1005.0
03 13.06 Ю 1
{3}
15 км н/о +10.6 +10.0 96 +10 +10 1013.2 1004.6 0
04 13.06 Ю 1 19 км н/о +10.3 +9.8 97 +10 +10 1013.0 1004.4
05 13.06 Ю 1 20 км н/о +10.7 +10.2 97 +10 +10 1013.3 1004.7
06 13.06 ЮВ 1
{2}
17 км 8/8 300 м
[]
+12.7 +11.3 91 +13 +14 1013.0 1004.5 +10.0 +15.9 0
07 13.06 ЮВ 2
{3}
19 км 9/0
[]
+14.0 +11.3 84 +14 +16 1013.0 1004.5
08 13.06 СВ 1 30 км н/о +15.5 +11.5 77 +16 +16 1012.9 1004.5
09 13.06 СВ 1
{5}
19 км 9/9 600 м
[]
+16.8 +11.5 71 +18 +19 1012.7 1004.3 0
10 13.06 СВ 1 20 км 8/8 720 м
[]
+16.4 +11.8 74 +18 +22 1012.4 1004.0
11 13.06 СЗ 2 50 км н/о +17.9 +12.8 72 +18 +18 1011.9 1003.6
12 13.06 СЗ 3
{9}
40 км н/о +17.7 +12.6 72 +18 +18 1011.7 1003.4 0
13 13.06 С 3 30 км н/о +17.9 +13.0 73 +18 +18 1011.4 1003.1
14 13.06 С 3 19 км н/о +17.9 +13.2 74 +18 +18 1011.0 1002.7
15 13.06 СЗ 3
{9}
17 км н/о +17.9 +13.8 77 +18 +18 1010.7 1002.4 0
16 13.06 СЗ 3 22 км 9/8 450 м
[]
+17.3 +13.8 80 +17 +19 1011.1 1002.8
17 13.06 СЗ 3 30 км слаб. дождь 10/10 480 м
[]
+16.3 +13.4 83 +16 +16 1011.0 1002.6 0.0
18 13.06 З 3
{9}
35 км слаб. дождь 10/10 300 м
[]
+15.4 +13.4 88 +15 +15 1012.3 1003.9 +12.8 +18.6 0.6 0
19 13.06 СЗ 3 35 км 9/6 480 м
[]
+15.4 +13.2 87 +15 +15 1012.9 1004.5 0.2
20 13.06 З 3 19 км слаб. дождь 10/10 450 м
[]
+14.8 +13.0 89 +14 +14 1013.6 1005.2 0.4
21 13.06 СЗ 3
{9}
35 км 10/10 300 м
[]
+14.8 +12.7 87 +14 +14 1014.7 1006.2 1 0
22 13.06 СЗ 2 40 км 10/10 480 м
[]
+15.0 +12.7 86 +15 +15 1015.2 1006.7
23 13.06 СЗ 2 35 км 10/10 450 м
[]
+14.7 +12.7 88 +14 +14 1015.2 1006.7
00 14.06 СЗ 1
{7}
19 км 10/10 600 м
[]
+14.7 +11.8 83 +15 +15 1014.9 1006.4 0
01 14.06 ЮЗ 1 40 км 10/10 700 м
[]
+14.3 +10.9 80 +15 +15 1014.7 1006.2
02 14.06 ЮЗ 1 30 км 10/8 600 м
[]
+13.4 +12.3 93 +14 +14 1014.5 1006.0
03 14.06 ЮЗ 1
{2}
30 км 9/9 1000 м
[]
+12.8 +12.2 96 +14 +14 1014.1 1005.6 0
04 14.06 Ю 1 30 км 9/9 660 м
[]
+12.6 +11.8 95 +13 +13 1014.1 1005.6
05 14.06 ЮВ 1 19 км 10/10 630 м
[]
+12.8 +12.0 95 +14 +14 1014.1 1005.6
06 14.06 В 1
{2}
22 км н/о +13.7 +12.8 94 +15 +15 1013.8 1005.3 +12.6 +15.6 1 0
07 14.06 СВ 1 35 км 10/10 1020 м
[]
+15.0 +12.1 83 +16 +16 1013.7 1005.3
08 14.06 В 1 45 км 9/9 570 м
[]
+15.8 +12.0 78 +17 +18 1013.7 1005.3
09 14.06 С 1
{5}
50 км 10/10 600 м
[]
+16.9 +12.0 73 +18 +18 1013.7 1005.3 0
10 14.06 С 2 30 км 10/9 700 м
[]
+16.5 +12.3 76 +17 +17 1013.3 1004.9
11 14.06 С 2 35 км 10/10 540 м
[]
+16.4 +12.6 78 +17 +17 1013.5 1005.1
12 14.06 СЗ 2
{7}
45 км 10/10 300 м
[]
+16.3 +12.6 79 +16 +16 1013.6 1005.2 0
13 14.06 С 2 35 км 10/10 500 м
[]
+16.5 +13.4 82 +17 +17 1013.6 1005.2
14 14.06 С 2 40 км 10/10 540 м
[]
+16.9 +13.4 80 +17 +17 1013.3 1004.9
15 14.06 СЗ 2
{7}
35 км 10/10 300 м
[]
+16.8 +13.5 81 +17 +17 1013.3 1004.9 0
16 14.06 СЗ 2 45 км 10/10 540 м
[]
+16.7 +13.6 82 +17 +17 1013.4 1005.0
17 14.06 СЗ 2 27 км 10/10 480 м
[]
+16.3 +13.4 83 +16 +16 1014.3 1005.9
18 14.06 З 1
{6}
21 км 10/10 200 м
[]
+15.3 +14.2 93 +16 +16 1014.6 1006.2 +13.6 +17.1 0.8 0
19 14.06 С 1 35 км 10/10 630 м
[]
+15.3 +13.5 89 +16 +16 1015.2 1006.8
20 14.06 СЗ 1 9000 м слаб. морось 10/10 450 м
[]
+15.0 +13.0 88 +16 +16 1015.8 1007.3 0.0
21 14.06 СЗ 2
{5}
6000 м слаб. морось 10/10 300 м
[]
+15.0 +13.5 91 +15 +15 1016.7 1008.2 0.0 0
22 14.06 СЗ 2 16 км 10/10 450 м
[]
+14.5 +13.9 96 +14 +14 1016.9 1008.4 0.2
23 14.06 З 2 4800 м дождь 10/10 700 м
[]
+14.4 +13.4 94 +14 +14 1018.0 1009.5 0.8
00 15.06 ЮЗ 1
{7}
5000 м дождь 10/10 300 м
[]
+14.1 +13.3 95 +14 +14 1018.0 1009.5 4 0
01 15.06 ЮЗ 1 25 км 10/10 500 м
[]
+14.3 +13.3 94 +15 +15 1018.2 1009.7 0.2
02 15.06 ЮЗ 1 19 км 10/10 300 м
[]
+13.9 +13.4 97 +14 +14 1018.3 1009.8
03 15.06 З 1
{5}
50 км 10/10 300 м
[]
+14.1 +12.5 90 +15 +15 1018.5 1010.0 0.2 0
04 15.06 З 2 50 км 10/10 700 м
[]
+14.4 +11.9 85 +14 +14 1019.0 1010.5
05 15.06 З 1 55 км 10/4 660 м
[]
+14.4 +11.4 82 +15 +15 1019.3 1010.8
06 15.06 Ю 1
{4}
40 км 10/10 1500 м
[]
+14.7 +12.6 87 +15 +15 1019.5 1011.0 +13.7 +15.4 4 0
07 15.06 ЮЗ 1 27 км н/о +15.5 +13.3 87 +17 +17 1020.1 1011.6
08 15.06 З 1 40 км 9/8 420 м
[]
+15.9 +13.0 83 +17 +18 1020.9 1012.4
09 15.06 З 2
{6}
50 км 9/9 300 м
[]
+16.2 +12.7 80 +16 +18 1021.3 1012.8 0
10 15.06 З 2 18 км н/о +17.1 +12.8 76 +18 +18 1021.5 1013.1
11 15.06 СЗ 2 35 км н/о +18.0 +12.0 68 +19 +19 1021.7 1013.3
12 15.06 СЗ 2
{8}
30 км н/о +18.4 +11.9 66 +20 +20 1021.9 1013.5 0
13 15.06 СЗ 2 35 км н/о +18.8 +10.9 60 +20 +20 1021.9 1013.5
14 15.06 СЗ 2 50 км н/о +19.6 +10.8 57 +21 +21 комфорт 1021.9 1013.5
15 15.06 СЗ 2
{8}
35 км н/о +19.1 +12.4 65 +21 +21 комфорт 1022.0 1013.6 0
16 15.06 С 2 19 км н/о +19.0 +11.1 60 +20 +20 1022.0 1013.6
17 15.06 С 2 35 км н/о +18.9 +10.7 59 +20 +20 1022.1 1013.7
18 15.06 СЗ 2
{6}
35 км н/о +18.1 +11.6 66 +19 +19 1022.4 1014.0 +14.4 +19.7 0
19 15.06 С 2 40 км н/о +17.6 +11.6 68 +18 +18 1022.6 1014.2
20 15.06 С 2 55 км н/о +16.3 +12.3 77 +17 +17 1023.0 1014.5
21 15.06 С 1
{5}
45 км н/о +15.8 +12.4 80 +16 +16 1023.6 1015.1 0
22 15.06 ЮВ 1 40 км 10/10 1200 м
[]
+15.8 +12.7 82 +17 +17 1023.7 1015.2
23 15.06 ЮВ 1 35 км н/о +14.7 +12.7 88 +15 +15 1023.6 1015.1
00 16.06 ЮЗ 1
{2}
26 км 10/10 1000 м
[]
+14.1 +12.5 90 +15 +15 1023.3 1014.8 0
01 16.06 Ю 1 25 км 10/10 420 м
[]
+13.4 +12.5 94 +13 +13 1022.9 1014.3
02 16.06 ЮВ 1 20 км 8/8 1080 м
[]
+12.6 +11.7 94 +12 +12 1022.6 1014.0
03 16.06 Ю 1
{4}
16 км н/о +12.2 +11.4 95 +12 +12 1022.5 1013.9 0
04 16.06 ЮВ 1 17 км 9/9 1020 м
[]
+11.7 +10.9 95 +12 +12 1022.4 1013.8
05 16.06 ЮВ 1 14 км н/о +11.5 +11.2 98 +11 +11 1022.4 1013.8
06 16.06 В 1
{3}
11 км н/о +13.1 +12.2 94 +13 +13 1022.4 1013.8 +11.0 +18.4 0
07 16.06 СВ 2 11 км н/о +14.8 +12.8 88 +15 +15 1022.3 1013.8
08 16.06 В 2 13 км н/о +16.5 +13.4 82 +17 +17 1022.3 1013.8
09 16.06 В 2
{8}
13 км н/о +18.3 +13.8 75 +19 +19 1021.7 1013.3 0
10 16.06 В 3 14 км н/о +20.1 +14.2 69 +23 +23 комфорт 1021.2 1012.9
11 16.06 В 3 15 км н/о +21.4 +14.3 64 +24 +24 комфорт 1020.5 1012.2
12 16.06 В 3
{10}
18 км н/о +22.9 +15.2 62 +27 +27 душно 1019.7 1011.4 0
13 16.06 В 3 26 км н/о +24.3 +15.8 59 +27 +27 жарко 1018.9 1010.7
14 16.06 В 3 26 км н/о +25.0 +14.8 53 +28 +28 жарко 1018.3 1010.1
15 16.06 В 3
{9}
50 км н/о +25.6 +14.1 49 +28 +28 жарко 1017.7 1009.5 0
16 16.06 В 3 50 км н/о +26.1 +14.5 49 +29 +29 жарко 1017.4 1009.2
17 16.06 В 3 45 км н/о +25.6 +14.1 49 +28 +28 жарко 1017.1 1008.9
18 16.06 В 3
{9}
40 км н/о +24.8 +13.4 49 +27 +27 жарко 1017.0 1008.8 +13.1 +26.4 0
19 16.06 В 2 50 км н/о +23.9 +13.7 53 +26 +26 жарко 1017.0 1008.8
20 16.06 СВ 2 60 км н/о +22.7 +13.5 56 +26 +26 жарко 1017.1 1008.9
21 16.06 З 1
{5}
20 км н/о +18.6 +16.2 86 +21 +21 комфорт 1018.1 1009.7 0
22 16.06 З 1 14 км н/о +17.3 +16.2 93 +18 +18 1018.3 1009.9
23 16.06 З 2 11 км н/о +17.1 +16.3 95 +17 +17 1018.3 1009.9
00 17.06 З 3
{8}
10 км н/о +16.6 +16.0 96 +16 +16 1018.3 1009.9 0
01 17.06 З 2 11 км 9/9 150 м
[]
+16.4 +15.8 96 +16 +16 1018.0 1009.6
02 17.06 З 2 11 км 9/9 180 м
[]
+16.2 +15.6 96 +16 +16 1017.9 1009.5
03 17.06 З 2
{7}
11 км 8/8 100 м
[]
+15.8 +15.3 97 +16 +16 1017.4 1009.0 0
04 17.06 Ю 1 11 км 9/9 210 м
[]
+15.7 +15.2 97 +17 +17 1017.3 1008.9
05 17.06 штиль 0 14 км 10/10 210 м
[]
+15.9 +15.1 95 +16 +16 1017.4 1009.0
06 17.06 ЮВ 1
{2}
14 км 9/9 200 м
[]
+16.5 +15.2 92 +18 +18 1017.6 1009.2 +15.6 +24.8 0
07 17.06 В 1 15 км 10/10 270 м
[]
+17.5 +15.5 88 +19 +19 1017.5 1009.1
08 17.06 В 1 15 км н/о +19.2 +15.9 81 +22 +22 комфорт 1017.0 1008.7
09 17.06 В 1
{6}
19 км н/о +21.4 +16.1 72 +25 +25 комфорт 1016.6 1008.3 0
10 17.06 СВ 2 19 км н/о +21.5 +17.1 76 +25 +25 комфорт 1016.1 1007.8
11 17.06 СВ 2 19 км н/о +22.8 +17.7 73 +28 +28 душно 1015.5 1007.3
12 17.06 В 2
{7}
19 км н/о +24.1 +18.1 69 +28 +28 душно 1014.9 1006.7 0
13 17.06 СВ 2 28 км н/о +26.8 +17.8 58 +31 +31 душно 1014.0 1005.9
14 17.06 В 2 19 км н/о +27.6 +17.7 55 +32 +32 очень
душно
1013.4 1005.3
15 17.06 В 3
{8}
19 км н/о +29.8 +17.3 47 +34 +34 очень
душно
1012.6 1004.6 0
16 17.06 В 6
{9}
45 км н/о +30.0 +16.1 43 +33 +33 душно 1011.9 1003.9
17 17.06 В 3 45 км н/о +29.6 +15.7 43 +32 +32 душно 1011.4 1003.4
18 17.06 В 2
{8}
55 км н/о +28.3 +16.2 48 +32 +32 душно 1011.3 1003.3 +16.5 +30.4 0
19 17.06 З 4 12 км 8/1 150 м
[]
+18.9 +17.7 93 +20 +20 1012.8 1004.5 0.0
20 17.06 З 5 10 км 10/10 150 м
[]
+17.9 +17.1 95 +18 +18 1013.4 1005.1
21 17.06 З 4
{13}
9000 м 10/10 200 м
[]
+17.2 +16.1 93 +17 +17 1014.2 1005.8 0.0 0
22 17.06 З 3 6000 м 10/10 210 м
[]
+17.0 +15.9 93 +17 +17 1014.2 1005.8
23 17.06 З 2 10 км 10/10 210 м
[]
+16.8 +15.8 94 +17 +17 1014.4 1006.0
00 18.06 З 3
{8}
10 км 10/10 200 м
[]
+16.7 +15.9 95 +17 +17 1014.0 1005.6 0
01 18.06 З 2 11 км 9/5 300 м
[]
+16.6 +15.5 93 +17 +17 1013.4 1005.0
02 18.06 З 2 13 км 10/8 240 м
[]
+16.5 +15.4 93 +17 +17 1013.1 1004.7
03 18.06 З 1
{6}
9000 м 10/10 200 м
[]
+16.5 +15.2 92 +17 +17 1012.6 1004.2 0
04 18.06 ЮВ 1 7000 м 9/3 270 м
[]
+15.9 +14.9 94 +17 +17 1012.2 1003.8
05 18.06 ЮВ 1 8000 м 10/10
[]
+15.6 +15.0 96 +16 +16 1011.4 1003.0
06 18.06 В 2
{5}
5000 м н/о +16.3 +15.5 95 +17 +17 1011.1 1002.7 +15.5 +28.3 0.0 0
07 18.06 В 2 7000 м н/о +18.8 +16.2 85 +20 +20 1011.0 1002.7
08 18.06 В 2 10 км н/о +21.0 +17.2 79 +26 +26 душно 1010.5 1002.3
09 18.06 СВ 2
{6}
14 км н/о +23.5 +17.9 71 +28 +28 душно 1010.3 1002.1 0
10 18.06 В 2 19 км 9/9
[]
+24.8 +18.7 69 +30 +31 душно 1009.9 1001.8
11 18.06 В 2 30 км н/о +27.4 +19.5 62 +33 +33 очень
душно
1009.4 1001.4
12 18.06 СВ 1
{5}
35 км н/о +30.6 +19.9 53 +37 +37 очень
душно
1008.7 1000.8 0
13 18.06 В 2 30 км н/о +33.6 +16.0 35 +36 +36 очень
душно
1007.9 1000.0
14 18.06 В 1 23 км н/о +33.3 +16.6 37 +36 +36 очень
душно
1007.4 999.5
15 18.06 Ю 2
{10}
45 км н/о +35.2 +10.3 22 +34 +34 очень
жарко
1006.6 998.8 0
16 18.06 Ю 3 40 км н/о +34.2 +12.0 26 +34 +34 очень
жарко
1005.9 998.0
17 18.06 ЮЗ 4 17 км 10/10
[]
+24.0 +17.0 65 +28 +28 душно 1007.1 999.0
18 18.06 З 5-16
{20}
8000 м 9/9 100 м
[]
+18.8 +17.5 92 +20 +20 1009.3 1001.0 +16.4 +35.5 0
19 18.06 З 4 9000 м 10/10 180 м
[]
+17.9 +16.6 92 +18 +18 1010.6 1002.3
20 18.06 З 4 8000 м 10/10 240 м
[]
+17.5 +16.0 91 +17 +17 1011.1 1002.8
21 18.06 З 2
{10}
8000 м 10/10 200 м
[]
+17.0 +15.5 91 +17 +17 1011.6 1003.2 0
22 18.06 З 3 9000 м 10/10 270 м
[]
+16.8 +15.5 92 +17 +17 1011.9 1003.5
23 18.06 З 3 9000 м 10/10 240 м
[]
+16.9 +15.6 92 +17 +17 1011.9 1003.5
00 19.06 З 3
{8}
9000 м 10/10 200 м
[]
+16.9 +15.8 93 +17 +17 1012.2 1003.8 0
01 19.06 ЮЗ 1 9000 м 10/10 210 м
[]
+16.8 +15.8 94 +18 +18 1012.5 1004.1
02 19.06 ЮЗ 1 8000 м 10/10 210 м
[]
+16.5 +15.7 95 +18 +18 1012.8 1004.4
03 19.06 СВ 1
{2}
8000 м 8/8 200 м
[]
+16.4 +15.6 95 +18 +18 1013.0 1004.6 0

 

Местоположение метеостанции Биарриц (Франция): широта 43.47 долгота -1.53 высота над уровнем моря 71 м.

В архиве по умолчанию представлена погода в Биаррице за последнюю неделю. Архивные данные за месяц целиком и за предыдущие месяцы, начиная с января 2011 года, Вы можете получить, выбрав интересующий диапазон дат из раскрывающегося списка и нажав кнопку "Ввод!".


*Определитесь, кто Вы:
робот инопланетянин человек

Внимание! Время в таблицах - всемирное. Для получения местного времени необходимо прибавить поправку, которая равна 1 ч.

Смотрите также архив погоды в соседних городах и на ближайших метеорологических станциях:

Погода в Сибуре (Франция) (14 км)
Погода Сан-Себастьян аэропорту (Испания) (26 км)
Погода в Ирурите (Испания) (37 км)
Погода в Даксе (Франция) (44 км)
Погода в Сан-Себастьяне (Испания) (45 км)
Погода на Мысе Зумая (Испания) (61 км)
Погода в Илундайне (Испания) (77 км)
Погода в Элгойбар - Ибердрола (Испания) (77 км)
Погода в Зумаррага - Урзабалета (Испания) (77 км)
Погода в Памплоне (Испания) (78 км)

Пояснения к столбцам:

Ветер - указаны скорость ветра в м/с - средняя за 10 мин, порывы в срок и между сроками (в фигурных скобках) и направление, откуда дует ветер: С - северный, СВ - северо-восточный, В - восточный, ЮВ - юго-восточный, Ю - южный, ЮЗ - юго-западный, З - западный, СЗ - северо-западный.
Видимость - горизонтальная дальность видимости в метрах или километрах. При видимости от 1 до 10 км при отсутствии осадков обычно наблюдается дымка, при ухудшении видимости до 1 км и менее - туман. В сухую погоду видимость может ухудшаться дымом, пылью или мглою.
Явления - указаны атмосферные явления, наблюдавшиеся в срок или в последний час перед сроком; фигурными скобками обозначены явления, наблюдавшиеся между сроками (за 1-3 часа до срока); квадратными скобками обозначены град или гололедные отложения с указанием их диаметра в мм.
Облачность - указаны через наклонную черту общая и нижняя облачность в баллах и высота нижней границы облаков в метрах; квадратными скобками обозначены формы облаков: Ci - перистые, Cs - перисто-слоистые, Cc - перисто-кучевые, Ac - высококучевые, As - высокослоистые, Sc - слоисто-кучевые, Ns - слоисто-дождевые, Cu - кучевые, Cb - кучево-дождевые. Подробнее классификацию облаков см. в Атласе облаков (PDF).
T - Температура воздуха - температура, измеренная на высоте 2 м над землей.
Td - Температура точки росы - температура, при понижении до которой содержащийся в воздухе водяной пар достигнет насыщения.
f - Относительная влажность воздуха - влажноcть воздуха, измеренная на высоте 2 м над землей.
Te - Эффективная температура - температура, которую ощущает одетый по сезону человек в тени. Характеристика душности погоды. При расчете учитывается влияние влажности воздуха и скорости ветра на теплоощущения человека.
Tes - Эффективная температура на солнце - температура, которую ощущает человек, с поправкой на солнечный нагрев. Характеристика знойности погоды. Зависит от высоты солнца над горизонтом, облачности и скорости ветра. Ночью, в пасмурную погоду, а также при ветре 12 м/с и более поправка равна нулю.
P - Атмосферное давление - приведенное к уровню моря атмосферное давление.
Po - Атмосферное давление - измеренное на уровне метеостанции атмосферное давление.
Tmin - Минимальная температура - минимум температуры воздуха на высоте 2 м над землей.
Tmax - Максимальная температура - максимум температуры воздуха на высоте 2 м над землей.
R - Количество осадков - Количество выпавших осадков за период времени, мм. При наведении курсора мыши на число - период времени, за который выпало указанное количество осадков.
R24 - Количество осадков - Количество выпавших осадков за 24 часа, мм.
S - Снежный покров - Высота снежного покрова, см. При наведении курсора мыши на число - состояние снежного покрова и степень покрытия местности в баллах.